カタログに戻る

VIGORIDE 3

運用中科学SSO
NORAD 52760·PAYLOAD·🇺🇸 United States

打ち上げ May 25, 2022 から Cape Canaveral Space Force Station

Loading…

次のパス (今後24時間)

TLE

最新Source: Space-Track

元期: Sep 14, 2026, 08:41 UTC

1 52760U 22057AE  26257.36246633  .00004653  00000-0  17270-3 0  9999
2 52760  97.6740  39.8235 0008510 161.6519 198.5029 15.28079780238776

AllMySatでVIGORIDE 3をリアルタイム追跡

Download on the App Store